Regional Weather Roundup
Issued by NWS Northern Indiana

Home | Current Version | Previous Version | Text Only | Print | Product List | Glossary On
Versions: 1 2 3 4 5 6 7 8 9 10 11 12 13 14 15 16 17 18 19 20 21 22 23 24 25 26 27 28 29 30 31 32 33 34 35 36 37 38 39 40 41 42 43 44 45 46 47 48 49 50
000
ASUS43 KIWX 190810
RWRIWX

KIWX WEATHER ROUNDUP
NATIONAL WEATHER SERVICE NORTHERN INDIANA
300 AM EST THU JAN 19 2017

NOTE: "FAIR" INDICATES FEW OR NO CLOUDS BELOW 12,000 FEET WITH NO
SIGNIFICANT WEATHER AND/OR OBSTRUCTIONS TO VISIBILITY.

* THESE STATIONS ARE NOT UNDER NWS QUALITY CONTROL. THEY ALSO MAY NOT
  REPORT WEATHER SUCH AS PRECIPITATION OR FOG.

INZ001>027-190900-
NORTHERN INDIANA

CITY           SKY/WX    TMP DP  RH WIND       PRES   REMARKS
GARY*          CLOUDY    37  34  87 S5        30.07R
VALPARAISO     CLOUDY    36  34  92 S5        30.08R
LAPORTE*       CLOUDY    34  32  93 SW6       30.08S WCI  29
KNOX*          CLOUDY    34  23  64 S3        30.08S
SOUTH BEND     CLOUDY    34  32  92 SW8       30.09R WCI  27
GOSHEN         CLOUDY    35  30  82 SW10      30.09R WCI  27
ROCHESTER*     CLOUDY    36  34  93 SW3       30.10S
WARSAW*        CLOUDY    34  28  80 SW8       30.10R WCI  27
FORT WAYNE     CLOUDY    35  32  88 W10       30.11R WCI  27
MARION*        CLOUDY    36  34  93 SW5       30.11S

$$
INZ028>050-190900-
CENTRAL INDIANA

CITY           SKY/WX    TMP DP  RH WIND       PRES   REMARKS
LAFAYETTE      CLOUDY    35  34  96 S3        30.09F
KOKOMO*        CLOUDY    35  33  92 SW6       30.11R WCI  30
MUNCIE*        CLOUDY    37  34  89 SW6       30.10R
INDIANAPOLIS   CLOUDY    36  33  89 S5        30.10S

$$
MIZ043>046-050>051-056>058-064>065-071>073-077>080-190900-
SOUTHWEST LOWER MICHIGAN

CITY           SKY/WX    TMP DP  RH WIND       PRES   REMARKS
BATTLE CREEK   CLOUDY    34  32  92 SW15      30.06R WCI  24
BENTON HARBOR  CLOUDY    37  33  85 SW7       30.07R
COLDWATER*     CLOUDY    33  33 100 SW9       30.07R WCI  26
HILLSDALE*     CLOUDY    32  32 100 W9        30.04R FOG     WCI  24
HOLLAND        CLOUDY    37  33  85 SW14      30.05R
GRAND RAPIDS   CLOUDY    35  31  85 SW10      30.03S WCI  27
KALAMAZOO      CLOUDY    35  30  82 SW6G17    30.06S WCI  30
STURGIS*       CLOUDY    33  32  96 SW10      30.07R WCI  25
THREE RIVERS*  CLOUDY    34  32  92 W7        30.07R WCI  28

$$
OHZ001>008-015>018-024>025-190900-
NORTHWEST OHIO

CITY           SKY/WX    TMP DP  RH WIND       PRES   REMARKS
DEFIANCE       CLOUDY    34  32  92 SW9       30.11R WCI  27
FINDLAY        CLOUDY    37  32  82 SW9       30.09R
TOLEDO EXPRESS CLOUDY    34  33  96 SW12      30.08R WCI  25
TOLEDO METCALF CLOUDY    36  34  92 SW13      30.09R
LIMA           CLOUDY    35  35 100 SW12      30.10R WCI  27

$$
AND FOR LAKE MICHIGAN COASTAL AND OPEN LAKE BUOY OBSERVATIONS

STATION/POSITION TEMP    WIND        PRES    VSBY  WAVE
                 AIR SEA DIR/SP/G                  HT/PER
                 (F)     (DEG/KT/KT) (MB)    (MI)  (FT/S)
CALUMET HARBOR    35     190/  5/  9 1017.3R
BURNS HARBOR      37     190/  9/ 12 1019.0R

$$
&&




USA.gov is the U.S. government's official web portal to all federal, state and local government web resources and services.